Weather Service Report


085 
ASCA44 KEWX 230720
RWRMX 

LATIN AMERICA AND CARIBBEAN REGIONAL WEATHER ROUNDUP
NATIONAL WEATHER SERVICE AUSTIN/SAN ANTONIO TX
200 AM CDT SAT MAY 23 2015

NOTE: "FAIR" INDICATED FEW OR NO CLOUDS BELOW 12,000 FEET WITH NO
SIGNIFICANT WEATHER AND/OR OBSTRUCTIONS TO VISIBILITY.

BAJA CALIFORNIA
  
CITY           SKY/WX    TMP DP  RH WIND       PRES   REMARKS
LA PAZ           N/A    N/A N/A N/A MISG        N/A                   
TIJUANA        LGT RAIN  57  52  82 N7        30.11F                  

NORTHWESTERN MEXICO
  
CITY           SKY/WX    TMP DP  RH WIND       PRES   REMARKS
HERMOSILLO     CLEAR     68  39  34 CALM      29.98S                  

NORTHEASTERN MEXICO
  
CITY           SKY/WX    TMP DP  RH WIND       PRES   REMARKS
MATAMOROS      PTCLDY    79  77  94 E5        30.04S                  
MONTERREY      CLOUDY    75  73  94 E7        30.00F                  
REYNOSA        MOCLDY    73  72  94 SE6       30.02F                  

WESTERN MEXICO
  
CITY           SKY/WX    TMP DP  RH WIND       PRES   REMARKS
DEL BAJIO      CLOUDY    59  57  94 W14       30.43R                  
GUADALAJARA    PTCLDY    68  55  64 SE5       30.26R                  
MAZATLAN       PTCLDY    66  61  82 E7        29.93S                  
P. VALLARTA    CLEAR     77  72  83 NE5       29.95S                  
ZACATECAS      CLEAR     55  43  62 CALM      30.35F                  

CENTRAL MEXICO
  
CITY           SKY/WX    TMP DP  RH WIND       PRES   REMARKS
MEXICO CITY    PTCLDY    57  54  88 CALM      30.39F                  
QUERETARO      MOCLDY    61  55  82 E8        30.37R                  
S. LUIS POTOSI MOCLDY    57  57 100 CALM      30.34R                  
TOLUCA         PTCLDY    50  45  81 CALM      30.44F                  

SOUTHERN MEXICO
  
CITY           SKY/WX    TMP DP  RH WIND       PRES   REMARKS
ACAPULCO       MOCLDY    84  79  84 W7        29.93F HX  96           
VERACRUZ         N/A    N/A N/A N/A MISG        N/A                   

YUCATAN PENINSULA
  
CITY           SKY/WX    TMP DP  RH WIND       PRES   REMARKS
CANCUN         PTCLDY    81  73  78 E8        30.07F                  
COZUMEL        PTCLDY    73  73 100 CALM      30.07F                  
MERIDA         CLEAR     81  72  74 E14       30.05F                  
TAPACHULA      CLOUDY    75  72  88 SE8       29.99R                  

CENTRAL AMERICA
  
CITY           SKY/WX    TMP DP  RH WIND       PRES   REMARKS

CARIBBEAN
  
CITY           SKY/WX    TMP DP  RH WIND       PRES   REMARKS
ARUBA          PTCLDY    81  73  78 E21       29.94S                  
CURACAO        MOCLDY    81  73  78 E13       29.97F                  
KINGSTON       PTCLDY    81  73  78 N7        30.00S                  
NASSAU         PTCLDY    79  72  78 CALM      30.13F                  
SAN JUAN       PTCLDY    81  75  83 E5        30.08F                  
SANTO DOMINGO  MOCLDY    77  73  88 VRB3      30.03F                  
ST. CROIX      MOCLDY    79  73  83 E10       30.07                   
ST. THOMAS     MOCLDY    81  73  78 CALM      30.08                   

$$


Return to Home page


Western Regional Climate Center, wrcc@dri.edu